| time (UTC) | temp F | wind direction | speed knots | gust knots | rain 1hr in | rain 24hr in | rain mn in | humidity % | barometer mb |
| 20260508215436 | 57 | 0.0 | 0.0 | 0.00 | 0.08 | 0.08 | 50 | 1011.3 | |
| 20260508214513 | 56 | 0.0 | 0.0 | 0.00 | 0.08 | 0.08 | 48 | 1011.5 | |
| 20260508213456 | 56 | 286 | 0.0 | 0.9 | 0.00 | 0.08 | 0.08 | 50 | 1011.4 |
| 20260508212433 | 56 | 0.0 | 0.0 | 0.00 | 0.08 | 0.08 | 52 | 1011.4 | |
| 20260508211436 | 56 | 286 | 0.0 | 0.9 | 0.00 | 0.08 | 0.08 | 52 | 1011.2 |
| 20260508210433 | 55 | 39 | 0.0 | 4.3 | 0.00 | 0.08 | 0.08 | 52 | 1011.4 |
| 20260508205436 | 56 | 336 | 0.0 | 1.7 | 0.00 | 0.08 | 0.08 | 54 | 1011.5 |
| 20260508204513 | 53 | 0.0 | 0.0 | 0.00 | 0.08 | 0.08 | 56 | 1011.7 | |
| 20260508203436 | 54 | 0.0 | 0.0 | 0.00 | 0.08 | 0.08 | 56 | 1011.5 | |
| 20260508202453 | 56 | 0.0 | 0.0 | 0.00 | 0.08 | 0.08 | 58 | 1011.7 | |
| 20260508201436 | 54 | 0.0 | 0.0 | 0.00 | 0.08 | 0.08 | 60 | 1011.6 | |
| 20260508200433 | 53 | 0.0 | 0.0 | 0.00 | 0.08 | 0.08 | 60 | 1011.9 | |
| 20260508195436 | 53 | 0.0 | 0.0 | 0.00 | 0.08 | 0.08 | 58 | 1011.9 | |
| 20260508194432 | 54 | 341 | 1.7 | 6.1 | 0.00 | 0.08 | 0.08 | 57 | 1012.2 |
| 20260508193437 | 54 | 0.0 | 0.0 | 0.00 | 0.08 | 0.08 | 59 | 1012.0 | |
| 20260508192433 | 54 | 0.0 | 0.0 | 0.00 | 0.08 | 0.08 | 62 | 1012.1 | |
| 20260508191436 | 53 | 0.0 | 0.0 | 0.00 | 0.08 | 0.08 | 64 | 1012.2 | |
| 20260508190432 | 52 | 0.0 | 0.0 | 0.00 | 0.08 | 0.08 | 66 | 1012.3 | |
| 20260508185436 | 54 | 0.0 | 0.0 | 0.00 | 0.08 | 0.08 | 67 | 1012.2 | |
| 20260508184433 | 53 | 0.0 | 0.0 | 0.00 | 0.08 | 0.08 | 68 | 1012.4 | |
| 20260508183436 | 52 | 354 | 0.0 | 0.9 | 0.00 | 0.08 | 0.08 | 67 | 1012.6 |
| 20260508182433 | 52 | 320 | 0.0 | 1.7 | 0.00 | 0.08 | 0.08 | 68 | 1012.6 |
| 20260508181456 | 51 | 275 | 0.0 | 6.1 | 0.00 | 0.08 | 0.08 | 68 | 1012.6 |
| 20260508180433 | 52 | 287 | 0.0 | 0.9 | 0.00 | 0.08 | 0.08 | 71 | 1012.8 |
| 20260508175436 | 50 | 309 | 1.7 | 9.6 | 0.00 | 0.08 | 0.08 | 74 | 1012.4 |
| 20260508174452 | 50 | 0.0 | 0.0 | 0.00 | 0.08 | 0.08 | 74 | 1012.8 | |
| 20260508173436 | 49 | 290 | 0.0 | 7.0 | 0.00 | 0.08 | 0.08 | 73 | 1012.6 |
| 20260508172453 | 49 | 0.0 | 0.0 | 0.00 | 0.08 | 0.08 | 75 | 1012.9 | |
| 20260508171436 | 50 | 0.0 | 0.0 | 0.00 | 0.08 | 0.08 | 76 | 1012.8 | |
| 20260508170453 | 47 | 0.0 | 0.0 | 0.00 | 0.08 | 0.08 | 76 | 1013.1 | |
| 20260508165436 | 48 | 0.0 | 0.0 | 0.00 | 0.08 | 0.08 | 80 | 1013.0 | |
| 20260508164453 | 50 | 0.0 | 0.0 | 0.00 | 0.08 | 0.08 | 81 | 1013.2 | |
| 20260508163536 | 47 | 0.0 | 0.0 | 0.00 | 0.08 | 0.08 | 84 | 1012.9 | |
| 20260508162433 | 47 | 0.0 | 0.0 | 0.00 | 0.08 | 0.08 | 92 | 1013.3 | |
| 20260508161436 | 46 | 0.0 | 0.0 | 0.01 | 0.08 | 0.08 | 95 | 1013.1 | |
| 20260508160433 | 44 | 0.0 | 0.0 | 0.01 | 0.08 | 0.08 | 97 | 1013.4 | |
| 20260508155456 | 44 | 0.0 | 0.0 | 0.01 | 0.08 | 0.08 | 98 | 1013.4 | |
| 20260508154453 | 43 | 0.0 | 0.0 | 0.02 | 0.08 | 0.08 | 97 | 1013.5 | |
| 20260508153436 | 43 | 0.0 | 0.0 | 0.02 | 0.07 | 0.07 | 96 | 1013.2 | |
| 20260508152432 | 43 | 0.0 | 0.0 | 0.02 | 0.07 | 0.07 | 96 | 1013.5 | |
| 20260508151436 | 43 | 310 | 0.0 | 6.1 | 0.00 | 0.06 | 0.06 | 96 | 1013.3 |
| 20260508150433 | 45 | 0.0 | 0.0 | 0.02 | 0.06 | 0.06 | 96 | 1013.3 | |
| 20260508145436 | 43 | 0.0 | 0.0 | 0.03 | 0.06 | 0.06 | 96 | 1013.1 | |
| 20260508144432 | 44 | 0.0 | 0.0 | 0.02 | 0.05 | 0.05 | 97 | 1013.4 | |
| 20260508143436 | 44 | 0.0 | 0.0 | 0.02 | 0.05 | 0.05 | 97 | 1013.1 | |
| 20260508142432 | 43 | 0.0 | 0.0 | 0.02 | 0.05 | 0.05 | 96 | 1013.2 | |
| 20260508141456 | 43 | 0.0 | 0.0 | 0.02 | 0.05 | 0.05 | 95 | 1013.2 | |
| 20260508140513 | 45 | 0.0 | 0.0 | 0.00 | 0.03 | 0.03 | 93 | 1013.1 | |
| 20260508135436 | 45 | 0.0 | 0.0 | 0.00 | 0.03 | 0.03 | 91 | 1012.8 | |
| 20260508134452 | 45 | 0.0 | 0.0 | 0.00 | 0.03 | 0.03 | 88 | 1012.8 | |
| 20260508133456 | 45 | 0.0 | 0.0 | 0.00 | 0.03 | 0.03 | 88 | 1012.7 | |
| 20260508132432 | 45 | 0.0 | 0.0 | 0.00 | 0.03 | 0.03 | 87 | 1013.0 | |
| 20260508131456 | 45 | 0.0 | 0.0 | 0.00 | 0.03 | 0.03 | 86 | 1012.6 | |
| 20260508130453 | 45 | 0.0 | 0.0 | 0.00 | 0.03 | 0.03 | 84 | 1012.7 | |
| 20260508125436 | 46 | 0.0 | 0.0 | 0.00 | 0.03 | 0.03 | 87 | 1012.6 | |
| 20260508124432 | 47 | 0.0 | 0.0 | 0.00 | 0.03 | 0.03 | 87 | 1012.5 | |
| 20260508123436 | 47 | 0.0 | 0.0 | 0.00 | 0.03 | 0.03 | 89 | 1012.0 | |
| 20260508122433 | 46 | 0.0 | 0.0 | 0.00 | 0.03 | 0.03 | 90 | 1012.4 | |
| 20260508121436 | 45 | 0.0 | 0.0 | 0.00 | 0.03 | 0.03 | 91 | 1012.3 | |
| 20260508120432 | 47 | 0.0 | 0.0 | 0.00 | 0.03 | 0.03 | 91 | 1012.3 | |
| 20260508115436 | 46 | 0.0 | 0.0 | 0.00 | 0.03 | 0.03 | 92 | 1012.1 | |
| 20260508114452 | 45 | 0.0 | 0.0 | 0.00 | 0.03 | 0.03 | 96 | 1012.3 | |
| 20260508113436 | 42 | 0.0 | 0.0 | 0.00 | 0.03 | 0.03 | 99 | 1012.3 | |
| 20260508112453 | 42 | 0.0 | 0.0 | 0.00 | 0.03 | 0.03 | 99 | 1012.6 | |
| 20260508111436 | 42 | 0.0 | 0.0 | 0.00 | 0.03 | 0.03 | 99 | 1012.3 | |
| 20260508110432 | 41 | 0.0 | 0.0 | 0.00 | 0.03 | 0.03 | 99 | 1012.7 | |
| 20260508105436 | 41 | 0.0 | 0.0 | 0.00 | 0.03 | 0.03 | 99 | 1012.6 | |
| 20260508104432 | 40 | 0.0 | 0.0 | 0.00 | 0.03 | 0.03 | 99 | 1011.7 | |
| 20260508103436 | 40 | 0.0 | 0.0 | 0.00 | 0.03 | 0.03 | 99 | 1012.3 | |
| 20260508102433 | 39 | 0.0 | 0.0 | 0.00 | 0.03 | 0.03 | 99 | 1011.4 | |
| 20260508101436 | 38 | 0.0 | 0.0 | 0.00 | 0.03 | 0.03 | 99 | 1012.2 | |
| 20260508100432 | 38 | 0.0 | 0.0 | 0.00 | 0.03 | 0.03 | 99 | 1011.6 | |
| 20260508095436 | 37 | 0.0 | 0.0 | 0.00 | 0.03 | 0.03 | 99 | 1012.4 | |
| 20260508094433 | 37 | 0.0 | 0.0 | 0.00 | 0.03 | 0.03 | 99 | 1011.3 | |
| 20260508093436 | 37 | 0.0 | 0.0 | 0.00 | 0.03 | 0.03 | 99 | 1012.1 | |
| 20260508092432 | 37 | 0.0 | 0.0 | 0.00 | 0.03 | 0.03 | 99 | 1011.1 | |
| 20260508091436 | 38 | 0.0 | 0.0 | 0.00 | 0.03 | 0.03 | 99 | 1012.0 | |
| 20260508090432 | 39 | 0.0 | 0.0 | 0.00 | 0.03 | 0.03 | 99 | 1011.1 | |
| 20260508085437 | 39 | 0.0 | 0.0 | 0.00 | 0.03 | 0.03 | 99 | 1011.9 | |
| 20260508084452 | 39 | 0.0 | 0.0 | 0.00 | 0.03 | 0.03 | 99 | 1011.1 | |
| 20260508083436 | 39 | 0.0 | 0.0 | 0.00 | 0.03 | 0.03 | 99 | 1011.9 | |
| 20260508082432 | 40 | 0.0 | 0.0 | 0.00 | 0.03 | 0.03 | 99 | 1011.0 | |
| 20260508081436 | 40 | 0.0 | 0.0 | 0.00 | 0.03 | 0.03 | 99 | 1011.9 | |
| 20260508080432 | 41 | 0.0 | 0.0 | 0.00 | 0.03 | 0.03 | 99 | 1011.2 | |
| 20260508075436 | 41 | 0.0 | 0.0 | 0.00 | 0.03 | 0.03 | 99 | 1012.0 | |
| 20260508074432 | 41 | 0.0 | 0.0 | 0.00 | 0.03 | 0.03 | 99 | 1011.2 | |
| 20260508073436 | 41 | 0.0 | 0.0 | 0.00 | 0.03 | 0.03 | 99 | 1012.0 | |
| 20260508072432 | 41 | 0.0 | 0.0 | 0.00 | 0.03 | 0.03 | 99 | 1011.3 | |
| 20260508071456 | 41 | 0.0 | 0.0 | 0.01 | 0.03 | 0.03 | 98 | 1012.0 | |
| 20260508070432 | 41 | 0.0 | 0.0 | 0.03 | 0.03 | 0.03 | 97 | 1011.3 | |
| 20260508065436 | 41 | 0.0 | 0.0 | 0.03 | 0.03 | 0.03 | 97 | 1012.1 | |
| 20260508064433 | 41 | 0.0 | 0.0 | 0.03 | 0.03 | 0.03 | 96 | 1011.4 | |
| 20260508063456 | 41 | 0.0 | 0.0 | 0.03 | 0.03 | 0.03 | 95 | 1012.1 | |
| 20260508062432 | 42 | 0.0 | 0.0 | 0.03 | 0.03 | 0.03 | 92 | 1011.5 | |
| 20260508061456 | 42 | 305 | 0.0 | 8.7 | 0.01 | 0.01 | 0.01 | 88 | 1012.1 |
| 20260508060432 | 44 | 0.0 | 0.0 | 0.00 | 0.00 | 0.00 | 82 | 1011.3 | |
| 20260508055436 | 44 | 0.0 | 0.0 | 0.00 | 0.00 | 0.00 | 79 | 1011.8 | |
| 20260508054432 | 44 | 0.0 | 0.0 | 0.00 | 0.00 | 0.00 | 77 | 1010.7 | |
| 20260508053436 | 44 | 0.0 | 0.0 | 0.00 | 0.00 | 0.00 | 76 | 1011.9 | |
| 20260508052432 | 44 | 0.0 | 0.0 | 0.00 | 0.00 | 0.00 | 76 | 1010.9 | |
| 20260508051436 | 45 | 0.0 | 0.0 | 0.00 | 0.00 | 0.00 | 75 | 1011.7 | |
| 20260508050432 | 44 | 0.0 | 0.0 | 0.00 | 0.00 | 0.00 | 74 | 1010.7 | |
| 20260508045436 | 44 | 0.0 | 0.0 | 0.00 | 0.00 | 0.00 | 75 | 1011.8 | |
| 20260508044452 | 44 | 0.0 | 0.0 | 0.00 | 0.00 | 0.00 | 75 | 1010.8 | |
| 20260508043436 | 44 | 0.0 | 0.0 | 0.00 | 0.00 | 0.00 | 74 | 1011.7 | |
| 20260508042432 | 44 | 0.0 | 0.0 | 0.00 | 0.00 | 0.00 | 74 | 1010.7 | |
| 20260508041436 | 44 | 0.0 | 0.0 | 0.00 | 0.00 | 0.00 | 74 | 1011.4 | |
| 20260508040433 | 44 | 0.0 | 0.0 | 0.00 | 0.00 | 0.00 | 78 | 1010.7 | |
| 20260508035435 | 43 | 0.0 | 0.0 | 0.00 | 0.00 | 0.00 | 80 | 1011.5 | |
| 20260508034434 | 42 | 0.0 | 0.0 | 0.00 | 0.00 | 0.00 | 82 | 1011.8 | |
| 20260508033435 | 40 | 0.0 | 0.0 | 0.00 | 0.00 | 0.00 | 83 | 1011.3 | |
| 20260508032434 | 40 | 0.0 | 0.0 | 0.00 | 0.00 | 0.00 | 81 | 1011.8 | |
| 20260508031435 | 41 | 0.0 | 0.0 | 0.00 | 0.00 | 0.00 | 80 | 1011.3 | |
| 20260508030434 | 42 | 0.0 | 0.0 | 0.00 | 0.00 | 0.00 | 79 | 1011.5 | |
| 20260508025435 | 42 | 0.0 | 0.0 | 0.00 | 0.00 | 0.00 | 79 | 1011.1 | |
| 20260508024434 | 42 | 0.0 | 0.0 | 0.00 | 0.00 | 0.00 | 76 | 1011.3 | |
| 20260508023456 | 43 | 0.0 | 0.0 | 0.00 | 0.00 | 0.00 | 73 | 1010.9 | |
| 20260508022434 | 43 | 0.0 | 0.0 | 0.00 | 0.00 | 0.00 | 71 | 1011.4 | |
| 20260508021435 | 45 | 0.0 | 0.0 | 0.00 | 0.00 | 0.00 | 67 | 1010.9 | |
| 20260508020434 | 46 | 0.0 | 0.0 | 0.00 | 0.00 | 0.00 | 63 | 1011.6 | |
| 20260508015456 | 46 | 0.0 | 0.0 | 0.00 | 0.00 | 0.00 | 62 | 1011.1 | |
| 20260508014434 | 47 | 0.0 | 0.0 | 0.00 | 0.00 | 0.00 | 60 | 1011.7 | |
| 20260508013435 | 47 | 0.0 | 0.0 | 0.00 | 0.00 | 0.00 | 59 | 1011.3 | |
| 20260508012434 | 48 | 0.0 | 0.0 | 0.00 | 0.00 | 0.00 | 58 | 1011.5 | |
| 20260508011516 | 48 | 0.0 | 0.0 | 0.00 | 0.00 | 0.00 | 56 | 1011.0 | |
| 20260508010434 | 48 | 0.0 | 0.0 | 0.00 | 0.00 | 0.00 | 56 | 1011.4 | |
| 20260508005436 | 49 | 0.0 | 0.0 | 0.00 | 0.00 | 0.00 | 55 | 1011.0 | |
| 20260508004434 | 49 | 0.0 | 0.0 | 0.00 | 0.00 | 0.00 | 54 | 1011.2 | |
| 20260508003435 | 49 | 0.0 | 0.0 | 0.00 | 0.00 | 0.00 | 52 | 1010.8 | |
| 20260508002434 | 49 | 0.0 | 0.0 | 0.00 | 0.00 | 0.00 | 52 | 1011.0 | |
| 20260508001435 | 49 | 0.0 | 0.0 | 0.00 | 0.00 | 0.00 | 52 | 1010.5 | |
| 20260508000434 | 50 | 0.0 | 0.0 | 0.00 | 0.00 | 0.00 | 51 | 1010.9 | |
| 20260507235435 | 50 | 0.0 | 0.0 | 0.00 | 0.00 | 0.00 | 50 | 1010.7 | |
| 20260507234434 | 50 | 0.0 | 0.0 | 0.00 | 0.00 | 0.00 | 49 | 1010.9 | |
| 20260507233436 | 50 | 0.0 | 0.0 | 0.00 | 0.00 | 0.00 | 49 | 1010.5 | |
| 20260507232434 | 50 | 0.0 | 0.0 | 0.00 | 0.00 | 0.00 | 48 | 1010.8 | |
| 20260507231456 | 50 | 0.0 | 0.0 | 0.00 | 0.00 | 0.00 | 49 | 1010.4 | |
| 20260507230514 | 51 | 0.0 | 0.0 | 0.00 | 0.00 | 0.00 | 46 | 1011.0 | |
| 20260507225436 | 51 | 0.0 | 0.0 | 0.00 | 0.00 | 0.00 | 46 | 1010.4 | |
| 20260507224434 | 52 | 0.0 | 0.0 | 0.00 | 0.00 | 0.00 | 46 | 1010.8 | |
| 20260507223435 | 53 | 0.0 | 0.0 | 0.00 | 0.00 | 0.00 | 43 | 1010.4 | |
| 20260507222434 | 53 | 337 | 0.0 | 0.9 | 0.00 | 0.00 | 0.00 | 44 | 1010.7 |
| 20260507221436 | 54 | 92 | 0.0 | 4.3 | 0.00 | 0.00 | 0.00 | 42 | 1010.3 |
| 20260507220434 | 54 | 0.0 | 0.0 | 0.00 | 0.00 | 0.00 | 41 | 1010.7 |